{"data":{"norad_id":59170,"intl_designator":"2024-044U","name":"STARLINK-31340","alt_names":[],"object_type":"PAYLOAD","status":"ACTIVE","operator":null,"country":"US","launch_date":"2024-03-04","launch_site_code":"AFETR","launch_vehicle":null,"mission":null,"orbit_class":"UNKNOWN","rcs_meters":null,"size_class":null,"mass_kg":null,"dimensions":null,"purposes":["comms"],"wikipedia_slug":null,"has_3d_model":false,"image_url":null,"decayed_at":null,"tle_current":{"epoch":"2026-05-24T14:34:27.953472Z","epoch_age_seconds":108890,"freshness":"FRESH","line1":"1 59170U 24044U   26144.60726798  .00017240  00000+0  63298-3 0  9992","line2":"2 59170  42.9997 358.7327 0000960 271.6483  88.4259 15.27661639125634","mean_motion":15.27661639,"eccentricity":9.6e-5,"inclination_deg":42.9997,"raan_deg":358.7327,"arg_perigee_deg":271.6483,"mean_anomaly_deg":88.4259,"bstar":0.00063298,"rev_number":12563,"period_min":94.261711051579,"perigee_km":482.14599999237,"apogee_km":483.46330078925,"semimajor_km":6860.9416503908,"source":"CELESTRAK","updated_at":"2026-05-25T13:38:18.836367Z"}}}